This demonstration page uses our WeatherBlox Daily Observations layout. Learn more.

Left ArrowRight Arrow

Hourly Observations for January 17, 2020

Temp ( °F °C ) Dew Point ( °F °C ) Humidity (%) Winds ( mph kmh ) Pressure ( in mb ) Visibility ( mi km ) Precip ( " mm )
12:19 am 00:19 Mostly Cloudy 25 -3.9 16 -8.9 69 69 N 5 7 30.78 1042 10 16 0.00 0.00
12:53 am 00:53 Partly Cloudy 24 -4.4 15 -9.4 68 68 NNE 7 11 30.76 1042 10 16 0.00 0.00
1:14 am 01:14 Mostly Cloudy 24 -4.4 15 -9.4 68 68 NE 8 13 30.80 1043 10 16 0.00 0.00
1:29 am 01:29 Partly Cloudy 24 -4.4 15 -9.4 68 68 NNE 6 9 30.81 1043 10 16 0.00 0.00
1:53 am 01:53 Mostly Cloudy 24 -4.4 15 -9.4 68 68 N 5 7 30.78 1042 10 16 0.00 0.00
2:53 am 02:53 Partly Cloudy 24 -4.4 15 -9.4 68 68 NNE 10 17 30.79 1043 10 16 0.00 0.00
3:25 am 03:25 Mostly Cloudy 24 -4.4 15 -9.4 68 68 NNE 6 9 30.82 1044 10 16 0.00 0.00
3:53 am 03:53 Mostly Cloudy 24 -4.4 14 -10 65 65 NNE 13 20 30.79 1043 10 16 0.00 0.00
4:53 am 04:53 Cloudy 24 -4.4 15 -9.4 68 68 NE 7 11 30.81 1043 10 16 0.00 0.00
5:53 am 05:53 Cloudy 24 -4.4 15 -9.4 68 68 E 8 13 30.80 1043 10 16 0.00 0.00
6:43 am 06:43 Mostly Clear 24 -4.4 14 -10 65 65 ENE 7 11 30.84 1044 10 16 0.00 0.00
6:53 am 06:53 Mostly Clear 23 -5 14 -10 68 68 ENE 5 7 30.82 1044 10 16 0.00 0.00
7:53 am 07:53 Mostly Cloudy 24 -4.4 15 -9.4 68 68 E 5 7 30.82 1044 10 16 0.00 0.00
8:23 am 08:23 Partly Cloudy 24 -4.4 15 -9.4 68 68 ENE 5 7 30.84 1044 10 16 0.00 0.00
8:53 am 08:53 Sunny 24 -4.4 15 -9.4 68 68 ENE 9 15 30.82 1044 10 16 0.00 0.00
9:53 am 09:53 Sunny 26 -3.3 16 -8.9 66 66 E 9 15 30.81 1043 10 16 0.00 0.00
10:53 am 10:53 Sunny 28 -2.2 16 -8.9 60 60 E 13 20 30.80 1043 10 16 0.00 0.00
11:53 am 11:53 Sunny 31 -0.6 17 -8.3 56 56 E 12 19 30.76 1042 10 16 0.00 0.00
12:53 pm 12:53 Sunny 32 0 17 -8.3 54 54 E 12 19 30.71 1040 10 16 0.00 0.00
1:53 pm 13:53 Mostly Sunny 32 0 17 -8.3 54 54 ESE 7 11 30.68 1039 10 16 0.00 0.00
2:53 pm 14:53 Mostly Sunny 33 0.6 17 -8.3 52 52 E 10 17 30.66 1038 10 16 0.00 0.00
3:53 pm 15:53 Mostly Sunny 33 0.6 18 -7.8 54 54 E 10 17 30.65 1038 10 16 0.00 0.00
4:53 pm 16:53 Cloudy 33 0.6 18 -7.8 54 54 E 12 19 30.59 1036 10 16 0.00 0.00
5:53 pm 17:53 Cloudy 33 0.6 18 -7.8 54 54 ESE 12 19 30.57 1035 10 16 0.00 0.00
6:53 pm 18:53 Cloudy 34 1.1 18 -7.8 52 52 E 12 19 30.55 1035 10 16 0.00 0.00
7:53 pm 19:53 Mostly Cloudy 34 1.1 18 -7.8 52 52 ESE 6 9 30.54 1034 10 16 0.00 0.00
8:53 pm 20:53 Cloudy 33 0.6 19 -7.2 56 56 ESE 9 15 30.48 1032 10 16 0.00 0.00
9:53 pm 21:53 Cloudy 34 1.1 18 -7.8 52 52 SE 6 9 30.47 1032 10 16 0.00 0.00
10:53 pm 22:53 Cloudy with Light Rain 33 0.6 21 -6.1 61 61 E 16 26 30.36 1028 10 16 0.00 0.00
11:53 pm 23:53 Cloudy 34 1.1 20 -6.7 56 56 ESE 6 9 30.35 1028 10 16 0.00 0.00

Powered by AerisWeather